Location: Wiler
(46.4041°N, 7.7840°E)
Time: 00:25:28
(UTC+00:00)

Cosmos 921 Rocket - Pass Details

Date: 09 April 2020
Orbit: 572 x 632 km, 75.8° (Epoch: 04 June)

Event Time Altitude Azimuth Distance (km) Brightness Sun altitude
Rises 18:59:33 0° 345° (NNW) 2,790 7.0 -9.1°
Reaches altitude 10° 19:01:49 10° 351° (N) 1,888 6.0 -9.5°
Maximum altitude 19:05:53 50° 67° (ENE) 737 3.2 -10.2°
Enters shadow 19:09:42 12° 143° (SE) 1,786 4.9 -10.8°
